Jonestown, MS

6:37 PM CDT on September 29, 2016 (GMT -0500)
Fletcher

Weather History for KCKM - March, 2014

Change the Weather History Date:

Wednesday, March 19, 2014

  Actual Average (KMEM) Record (KMEM)
Temperature  
Mean Temperature 53 °F 55 °F  
Max Temperature 60 °F 65 °F 83 °F (1945)
Min Temperature 46 °F 45 °F 14 °F (1923)
Degree Days  
Heating Degree Days 12 11  
Month to date heating degree days 250  
Since 1 July heating degree days 2700  
Cooling Degree Days 0 1  
Month to date cooling degree days 4  
Year to date cooling degree days 7  
Growing Degree Days 3 (Base 50)    
Moisture  
Dew Point 46 °F    
Average Humidity 73    
Maximum Humidity 94    
Minimum Humidity 48    
Precipitation  
Precipitation 0.00 in 0.17 in 5.26 in (1894)
Month to date precipitation 3.05  
Year to date precipitation 11.42  
Snow  
Snow 0.00 in 0.00 in 1.00 in (1965)
Month to date snowfall 0.3  
Since 1 July snowfall 3.7  
Snow Depth -    
Sea Level Pressure  
Sea Level Pressure 30.03 in    
Wind  
Wind Speed 9 mph (SW)    
Max Wind Speed 16 mph    
Max Gust Speed 24 mph    
Visibility 10 miles    
Events      
T = Trace of Precipitation, MM = Missing Value Source: NWS Daily Summary

Daily Weather History Graph

Daily Weather History Graph

Search for Another Location

Airport or City:

Trip Planner

Search our weather history database for the weather conditions in past years. The results will help you decide how hot, cold, wet, or windy it might be!

Date:

Astronomy

Mar. 19, 2014 Rise Set
Actual Time 7:07 AM CDT 7:12 PM CDT
Civil Twilight 6:42 AM CDT 7:38 PM CDT
Nautical Twilight 6:12 AM CDT 8:07 PM CDT
Astronomical Twilight 5:43 AM CDT 8:36 PM CDT
Moon 10:22 PM CDT (3/19) 8:41 AM CDT (3/19)
Length of Visible Light 12h 55m
Length of Day
12h 05m
Waning Gibbous, 91% of the Moon is Illuminated
Mar 19
Waning Gibbous
Mar 23
Last Quarter
Mar 30
New
Apr 7
First Quarter
Apr 15
Full

Hourly Weather History & Observations

Time (CDT) Temp. Windchill Dew Point Humidity Pressure Visibility Wind Dir Wind Speed Gust Speed Precip Events Conditions
12:15 AM 48.2 °F - 44.6 °F 87% 29.87 in 10.0 mi SSE 8.1 mph - N/A   Unknown
12:35 AM 48.2 °F - 44.6 °F 87% 29.87 in 10.0 mi SSE 8.1 mph - N/A   Unknown
12:55 AM 48.2 °F - 44.6 °F 87% 29.88 in 10.0 mi SSE 9.2 mph - N/A   Unknown
1:15 AM 48.2 °F - 44.6 °F 87% 29.89 in 10.0 mi South 6.9 mph - N/A   Unknown
1:35 AM 50.0 °F - 44.6 °F 82% 29.90 in 10.0 mi SSE 9.2 mph - N/A   Unknown
1:55 AM 48.2 °F - 44.6 °F 87% 29.89 in 10.0 mi South 10.4 mph - N/A   Unknown
2:15 AM 50.0 °F - 44.6 °F 82% 29.89 in 10.0 mi South 12.7 mph - N/A   Unknown
2:35 AM 50.0 °F - 46.4 °F 87% 29.88 in 10.0 mi South 12.7 mph - N/A   Unknown
2:55 AM 51.8 °F - 46.4 °F 82% 29.89 in 10.0 mi South 12.7 mph - N/A   Unknown
3:15 AM 50.0 °F - 46.4 °F 87% 29.89 in 10.0 mi South 10.4 mph - N/A   Unknown
3:35 AM 50.0 °F - 46.4 °F 87% 29.90 in 10.0 mi South 10.4 mph - N/A   Unknown
3:55 AM 50.0 °F - 46.4 °F 87% 29.90 in 10.0 mi South 9.2 mph - N/A   Unknown
4:15 AM 51.8 °F - 48.2 °F 88% 29.90 in 10.0 mi South 11.5 mph 18.4 mph N/A   Unknown
4:35 AM 53.6 °F - 48.2 °F 82% 29.91 in 10.0 mi South 15.0 mph - N/A   Unknown
4:55 AM 53.6 °F - 50.0 °F 88% 29.91 in 10.0 mi South 13.8 mph 19.6 mph N/A   Unknown
5:15 AM 53.6 °F - 50.0 °F 88% 29.91 in 10.0 mi South 12.7 mph 18.4 mph N/A   Unknown
5:35 AM 53.6 °F - 50.0 °F 88% 29.93 in 10.0 mi South 12.7 mph - N/A   Unknown
5:55 AM 53.6 °F - 50.0 °F 88% 29.93 in 10.0 mi South 11.5 mph - N/A   Unknown
6:15 AM 53.6 °F - 51.8 °F 94% 29.93 in 10.0 mi South 11.5 mph 18.4 mph N/A   Unknown
6:35 AM 53.6 °F - 51.8 °F 94% 29.94 in 10.0 mi South 11.5 mph - N/A   Unknown
6:55 AM 53.6 °F - 51.8 °F 94% 29.94 in 10.0 mi South 12.7 mph - N/A   Unknown
7:15 AM 55.4 °F - 53.6 °F 94% 29.95 in 10.0 mi South 11.5 mph - N/A   Unknown
7:35 AM 55.4 °F - 53.6 °F 94% 29.96 in 10.0 mi South 10.4 mph - N/A   Unknown
7:55 AM 55.4 °F - 53.6 °F 94% 29.97 in 10.0 mi SSW 12.7 mph - N/A   Unknown
8:15 AM 55.4 °F - 53.6 °F 94% 29.97 in 9.0 mi SSW 12.7 mph 17.3 mph N/A   Unknown
8:35 AM 55.4 °F - 53.6 °F 94% 29.98 in 10.0 mi SSW 12.7 mph - N/A   Unknown
8:55 AM 55.4 °F - 53.6 °F 94% 29.99 in 10.0 mi SSW 11.5 mph - N/A   Unknown
9:15 AM 57.2 °F - 53.6 °F 88% 30.00 in 9.0 mi SSW 9.2 mph - N/A   Unknown
9:35 AM 57.2 °F - 55.4 °F 94% 30.01 in 8.0 mi SW 6.9 mph - N/A   Unknown
9:55 AM 57.2 °F - 55.4 °F 94% 30.02 in 10.0 mi West 13.8 mph - N/A   Unknown
10:15 AM 57.2 °F - 50.0 °F 77% 30.03 in 10.0 mi WNW 13.8 mph 18.4 mph N/A   Unknown
10:35 AM 57.2 °F - 44.6 °F 63% 30.04 in 9.0 mi WNW 13.8 mph - N/A   Unknown
10:55 AM 57.2 °F - 42.8 °F 59% 30.05 in 10.0 mi NW 16.1 mph - N/A   Unknown
11:15 AM 57.2 °F - 41.0 °F 55% 30.06 in 10.0 mi NW 13.8 mph 17.3 mph N/A   Unknown
11:35 AM 57.2 °F - 41.0 °F 55% 30.06 in 10.0 mi NW 13.8 mph 18.4 mph N/A   Unknown
11:55 AM 57.2 °F - 41.0 °F 55% 30.07 in 10.0 mi WNW 15.0 mph - N/A   Unknown
12:15 PM 57.2 °F - 39.2 °F 51% 30.08 in 10.0 mi West 12.7 mph - N/A   Unknown
12:35 PM 57.2 °F - 41.0 °F 55% 30.08 in 10.0 mi NW 13.8 mph - N/A   Unknown
12:55 PM 57.2 °F - 42.8 °F 59% 30.08 in 9.0 mi WNW 12.7 mph 18.4 mph N/A   Unknown
1:15 PM 57.2 °F - 41.0 °F 55% 30.08 in 10.0 mi West 9.2 mph - N/A   Unknown
1:35 PM 59.0 °F - 42.8 °F 55% 30.09 in 10.0 mi NW 10.4 mph - N/A   Unknown
1:55 PM 59.0 °F - 44.6 °F 59% 30.08 in 10.0 mi WNW 9.2 mph 24.2 mph N/A   Unknown
2:15 PM 59.0 °F - 44.6 °F 59% 30.08 in 10.0 mi West 13.8 mph 17.3 mph N/A   Unknown
2:35 PM 59.0 °F - 44.6 °F 59% 30.08 in 10.0 mi West 12.7 mph 17.3 mph N/A   Unknown
2:55 PM 59.0 °F - 44.6 °F 59% 30.07 in 9.0 mi West 10.4 mph - N/A   Unknown
3:15 PM 60.8 °F - 44.6 °F 55% 30.07 in 10.0 mi WNW 9.2 mph - N/A   Unknown
3:35 PM 60.8 °F - 44.6 °F 55% 30.07 in 10.0 mi WNW 9.2 mph 16.1 mph N/A   Unknown
3:55 PM 60.8 °F - 44.6 °F 55% 30.07 in 10.0 mi WNW 9.2 mph - N/A   Unknown
4:15 PM 60.8 °F - 41.0 °F 48% 30.08 in 9.0 mi NW 9.2 mph - N/A   Unknown
4:35 PM 60.8 °F - 42.8 °F 52% 30.08 in 10.0 mi NW 5.8 mph - N/A   Unknown
4:55 PM 60.8 °F - 42.8 °F 52% 30.08 in 10.0 mi West 8.1 mph - N/A   Unknown
5:15 PM 60.8 °F - 42.8 °F 52% 30.09 in 9.0 mi WNW 9.2 mph - N/A   Unknown
5:35 PM 60.8 °F - 42.8 °F 52% 30.09 in 10.0 mi WNW 4.6 mph - N/A   Unknown
5:55 PM 60.8 °F - 42.8 °F 52% 30.09 in 10.0 mi NW 3.5 mph - N/A   Unknown
6:15 PM 60.8 °F - 44.6 °F 55% 30.10 in 10.0 mi NW 6.9 mph - N/A   Unknown
6:35 PM 59.0 °F - 44.6 °F 59% 30.10 in 10.0 mi Calm Calm - N/A   Unknown
6:55 PM 59.0 °F - 41.0 °F 51% 30.10 in 10.0 mi Calm Calm - N/A   Unknown
7:15 PM 57.2 °F - 44.6 °F 63% 30.11 in 10.0 mi Calm Calm - N/A   Unknown
7:35 PM 55.4 °F - 46.4 °F 72% 30.11 in 10.0 mi Calm Calm - N/A   Unknown
7:55 PM 55.4 °F - 41.0 °F 58% 30.12 in 10.0 mi Calm Calm - N/A   Unknown
8:15 PM 53.6 °F - 42.8 °F 67% 30.12 in 10.0 mi Calm Calm - N/A   Unknown
8:35 PM 53.6 °F - 42.8 °F 67% 30.13 in 10.0 mi Calm Calm - N/A   Unknown
8:55 PM 51.8 °F - 42.8 °F 71% 30.14 in 10.0 mi Calm Calm - N/A   Unknown
9:15 PM 50.0 °F - 42.8 °F 76% 30.15 in 10.0 mi Calm Calm - N/A   Unknown
9:35 PM 51.8 °F - 42.8 °F 71% 30.16 in 10.0 mi Calm Calm - N/A   Unknown
9:55 PM 50.0 °F - 41.0 °F 71% 30.16 in 10.0 mi Calm Calm - N/A   Unknown
10:15 PM 48.2 °F - 41.0 °F 76% 30.16 in 10.0 mi Calm Calm - N/A   Unknown
10:35 PM 46.4 °F - 41.0 °F 81% 30.17 in 10.0 mi Calm Calm - N/A   Unknown
10:55 PM 46.4 °F - 41.0 °F 81% 30.17 in 10.0 mi Calm Calm - N/A   Unknown
11:15 PM 46.4 °F - 41.0 °F 81% 30.17 in 10.0 mi Calm Calm - N/A   Unknown
11:35 PM 46.4 °F - 41.0 °F 81% 30.17 in 10.0 mi Calm Calm - N/A   Unknown
11:55 PM 46.4 °F 45.2 °F 39.2 °F 76% 30.17 in 10.0 mi NNW 3.5 mph - N/A   Unknown